Christmas Island, Christmas Island

12:24 PM +07 on March 28, 2017 (GMT +0700)
Christmas Island

Weather History for YPXM - July, 2013

Change the Weather History Date:

Tuesday, July 23, 2013

  Actual Average Record
Temperature  
Mean Temperature 76 °F -  
Max Temperature 79 °F 76 °F 82 °F (2016)
Min Temperature 72 °F 69 °F 32 °F (2005)
Cooling Degree Days 10    
Growing Degree Days 26 (Base 50)    
Moisture  
Dew Point 74 °F    
Average Humidity 94    
Maximum Humidity 100    
Minimum Humidity 75    
Precipitation  
Precipitation 0.01 in - - ()
Sea Level Pressure  
Sea Level Pressure 29.89 in    
Wind  
Wind Speed 11 mph ()    
Max Wind Speed 16 mph    
Max Gust Speed 25 mph    
Visibility 6.2 miles    
Events      
Averages and records for this station are not official NWS values.
T = Trace of Precipitation, MM = Missing Value Source: Averaged Metar Reports

Daily Weather History Graph

Daily Weather History Graph

Search for Another Location

Airport or City:

Trip Planner

Search our weather history database for the weather conditions in past years. The results will help you decide how hot, cold, wet, or windy it might be!

Date:

Astronomy

Jul. 23, 2013 Rise Set
Actual Time 6:15 AM +07 5:52 PM +07
Civil Twilight 5:53 AM +07 6:14 PM +07
Nautical Twilight 5:27 AM +07 6:40 PM +07
Astronomical Twilight 5:01 AM +07 7:05 PM +07
Moon 6:30 PM +07 (7/23) 6:21 AM +07 (7/23)
Length of Visible Light 12h 21m
Length of Day
11h 36m
Full, 100% of the Moon is Illuminated
Jul 23
Full
Jul 30
Last Quarter
Aug 7
New
Aug 14
First Quarter
Aug 21
Full

Hourly Weather History & Observations

Time (+07) Temp. Dew Point Humidity Pressure Visibility Wind Dir Wind Speed Gust Speed Precip Events Conditions
12:00 AM 75 °F 75 °F 99% 29.86 in - East 12.7 mph - -   Overcast
12:00 AM 75.2 °F 75.2 °F 100% 29.89 in - East 12.7 mph 25.3 mph N/A   Drizzle
1:00 AM 75 °F 75 °F 100% 29.85 in - East 10.4 mph - -  
1:00 AM 75.2 °F 75.2 °F 100% 29.89 in - East 10.4 mph - N/A   Overcast
2:00 AM 75.2 °F 75.2 °F 100% 29.86 in - East 11.5 mph - N/A   Overcast
3:00 AM 75.2 °F 75.2 °F 100% 29.86 in 6.2 mi East 11.5 mph - N/A   Overcast
4:00 AM 75 °F 75 °F 99% 29.82 in - East 11.5 mph - -  
4:00 AM 75.2 °F 75.2 °F 100% 29.86 in - East 11.5 mph - N/A   Overcast
5:00 AM 75.2 °F 75.2 °F 100% 29.86 in - East 10.4 mph - N/A   Overcast
6:00 AM 76 °F 75 °F 95% 29.83 in - East 13.8 mph - -  
6:00 AM 75.2 °F 75.2 °F 100% 29.86 in - ENE 13.8 mph - N/A   Overcast
7:00 AM 76 °F 76 °F 99% 29.86 in - East 12.7 mph - -  
7:00 AM 77.0 °F 75.2 °F 94% 29.89 in 6.2 mi East 12.7 mph - N/A   Overcast
8:00 AM 77.0 °F 77.0 °F 100% 29.92 in 6.2 mi East 12.7 mph - N/A   Overcast
9:00 AM 77 °F 76 °F 98% 29.90 in - East 12.7 mph - -  
9:00 AM 77.0 °F 77.0 °F 100% 29.92 in 6.2 mi East 12.7 mph - N/A   Overcast
10:00 AM 77 °F 76 °F 98% 29.90 in - East 12.7 mph - -  
10:00 AM 77.0 °F 77.0 °F 100% 29.95 in 6.2 mi East 12.7 mph - N/A   Overcast
10:32 AM 77.0 °F 77.0 °F 100% 29.95 in 6.2 mi East 13.8 mph - N/A   Overcast
11:00 AM 77.0 °F 77.0 °F 100% 29.92 in 6.2 mi East 12.7 mph - N/A   Overcast
12:00 PM 77 °F 77 °F 99% 29.88 in - East 15.0 mph - -  
12:00 PM 77.0 °F 77.0 °F 100% 29.92 in 6.2 mi East 15.0 mph - N/A   Scattered Clouds
1:00 PM 78 °F 78 °F 100% 29.86 in - East 13.8 mph - -  
1:00 PM 78.8 °F 78.8 °F 100% 29.89 in 6.2 mi East 13.8 mph 25.3 mph N/A   Mostly Cloudy
2:00 PM 77.0 °F 77.0 °F 100% 29.86 in 6.2 mi East 15.0 mph - N/A   Overcast
3:00 PM 78 °F 77 °F 97% 29.83 in - East 11.5 mph - -   Overcast
3:00 PM 77.0 °F 77.0 °F 100% 29.86 in 6.2 mi East 11.5 mph - N/A   Overcast
4:00 PM 77 °F 77 °F 100% 29.83 in - East 12.7 mph - -  
4:00 PM 77.0 °F 77.0 °F 100% 29.86 in 6.2 mi East 12.7 mph - N/A   Overcast
4:44 PM 77.0 °F 71.6 °F 83% 29.86 in 6.2 mi East 12.7 mph - N/A   Mostly Cloudy
5:00 PM 77.0 °F 71.6 °F 83% 29.86 in 6.2 mi East 11.5 mph - N/A   Overcast
5:20 PM 77.0 °F 71.6 °F 83% 29.89 in 6.2 mi East 11.5 mph - N/A   Overcast
6:00 PM 76 °F 70 °F 78% 29.86 in - East 12.7 mph - -   Overcast
6:00 PM 77.0 °F 69.8 °F 78% 29.89 in 6.2 mi East 12.7 mph 25.3 mph N/A   Overcast
7:00 PM 76 °F 71 °F 82% 29.88 in - ESE 12.7 mph - -  
7:00 PM 75.2 °F 71.6 °F 89% 29.92 in 6.2 mi ESE 12.7 mph - N/A   Overcast
8:00 PM 75.2 °F 69.8 °F 83% 29.92 in 6.2 mi ESE 12.7 mph - N/A   Overcast
9:00 PM 76 °F 70 °F 76% 29.93 in - ESE 15.0 mph - -  
9:00 PM 75.2 °F 69.8 °F 83% 29.95 in 6.2 mi ESE 15.0 mph - N/A   Overcast
10:00 PM 76 °F 70 °F 75% 29.94 in - ESE 15.0 mph - -  
10:00 PM 75.2 °F 69.8 °F 83% 29.98 in 6.2 mi ESE 15.0 mph - N/A   Overcast
11:00 PM 75.2 °F 69.8 °F 83% 29.98 in 6.2 mi ESE 16.1 mph - N/A   Scattered Clouds